User: anonymous   Login
Location: Pallagorio
(39.3000°N, 16.9000°E)
Time: 06:51:53
(UTC+00:00)
Language:

Cosmos 1680 Rocket - Orbit

View from above orbital plane
View from above orbital plane
View from above satellite
View from above satellite

Ground track
Ground track

The orbit data is extracted from the following two-line orbital elements,

1 16012U 85079B   21108.63812971 -.00000038  00000-0 -40715-5 0  9993
2 16012  74.0571  84.5533 0014933 353.4107   6.6848 14.36364569865005
Epoch (UTC): 18 April 2021 15:18:54
Eccentricity: 0.0014933
inclination: 74.0571°
perigee height: 760 km
apogee height: 781 km
right ascension of ascending node: 84.5533°
argument of perigee: 353.4107°
revolutions per day: 14.36364569
mean anomaly at epoch: 6.6848°
orbit number at epoch: 86500

The dashed part of the orbit path shows where the satellite is in the earth's shadow,  

DLR